Погода Унский Маяк

Погода Унский Маяк : погода сейчас, прогноз погоды и архив. Всё, что Вы хотите узнать о погоде Унский Маяк!

Поиск расширенной информации на нашем сайте:

Другие новости

Новости СМИ2

Главная страница сайта

Новости сайта

03.07.2017

Напоминаем, что на нашем специализированном сайте Метеоцентр.Азия вы можете получить высокодетализированные автоматические прогнозы погоды по пунктам России, СНГ и мира в авиационном формате (включающие направление и скорость ветра, видимость, явления погоды, количество и форму облачности, нижнюю и верхнюю границу облачности).

Рекомендуем: амортизатор АКСС

Погода Унский Маяк - сегодня

Время (UTC), дата Ветер
(°,м/с) 
Видим.   Явления Облачность Т
(°С)
Тd
(°С)
f(%) Тe
(°С)
Pmin
(гПа)
dP
(гПа)
Po
(мм)
O2
(г/м3)
Тmin Tmax R s Состояние
почвы
06 04.12.17 210 (ЮЗ) 4000 м  слаб. снег  10/10 300 м 
[Frnb|Ns]
+0.3 -0.5 94 -1  999.6  -0.1  749  302  +0.3         
09 04.12.17 210 (ЮЗ) 20000 м  {снег}  10/10 300 м 
[Sc]
+0.3 -0.8 92 -2  999.7  0.1  749  302           
06 05.12.17 290 (З) 20000 м    10/10 600 м 
[Sc]
-1.4 -2.2 94 -4  997.1  0.2  747  303           
09 05.12.17 260 (З) 20000 м  {ливн. осадки}  8/5 600 м средняя 
[Sc|Ac lent]
-4.3 -4.9 96 -6  997.6  0.5  748  307           
15 05.12.17 260 (З) н/о    10/10 <0100 м 
[Sc]
-5.2 -6.2 93 -7  999.2  0.9  749  308    -1.4  0.8     
06 06.12.17 210 (ЮЗ) 20000 м    10/10 600 м 
[Sc]
-6.4 -7.2 94 -8  1001.2  0.3  750  310           
09 06.12.17 220 (ЮЗ) 20000 м    9/8 600 м средняя 
[Sc|Ac lent]
-6.8 -7.7 93 -8  1001.7  0.5  751  311           
06 07.12.17 240 (ЮЗ) 20000 м    9/8 600 м средняя 
[Sc|Ac lent]
-5.7 -6.8 92 -7  1007.1  0.8  755  311           
09 07.12.17 260 (З) 20000 м    8/3 600 м средняя, верхняя 
[Sc|Ac lent|Ci fib]
-5.9 -7.4 89 -7  1008.4  1.3  756  312           
15 07.12.17 240 (ЮЗ) 20000 м    3/0 средняя, верхняя 
[Ac lent|Ci fib]
-9 -9.7 95 -11  1009.9  0.6  757  316    -5.3       
06 08.12.17 180 (Ю) 20000 м    4/1 600 м средняя, верхняя 
[Sc|Ac lent|Ci fib]
-8.4 -11.2 80 -10  1010.5  -0.3  757  316           
09 08.12.17 170 (Ю) 20000 м    6/3 600 м средняя, верхняя 
[Sc|Ac lent|Ci fib]
-9.2 -11.7 82 -12  1011.2  0.7  758  317           
15 08.12.17 170 (Ю) 20000 м    8/8 600 м 
[Sc]
-8.1 -10.4 83 -11  1009.3  -1.4  757  315    -7       
06 09.12.17 150 (ЮВ) 4{10}  4000 м  слаб. снег  10/10 300 м 
[Frnb|Ns]
-8.7 -9.8 92 -12  1007.2  -0.7  755  315           
09 09.12.17 150 (ЮВ) 6{10}  2000 м  снег  10/10 300 м 
[Frnb|Ns]
-9 -10.1 92 -14  1008  0.8  756  316           
15 09.12.17 150 (ЮВ) 20000 м    10/10 300 м 
[Sc]
-8 -9.8 87 -11  1008.5  0.1  756  315    -8     
06 10.12.17 150 (ЮВ) 20000 м    9/9 300 м 
[Sc]
-3.9 -5.1 91 -5  1011.9  0.3  758  311           
09 10.12.17 140 (ЮВ) 20000 м    10/8 600 м средняя 
[Sc|Ac As]
-3.2 -4.6 90 -4  1012.1  0.2  759  310           
15 10.12.17 140 (ЮВ) 20000 м    10/10 600 м 
[Sc]
-3.1 -4.8 88 -5  1010.5  -1.1  757  309    -2.8       
06 11.12.17 160 (Ю) 20000 м    10/10 600 м 
[Sc]
-1.7 -2.8 92 -4  1008.4  -0.4  756  307           
09 11.12.17 150 (ЮВ) 20000 м  {ливн. осадки}  10/10 600 м 
[Sc]
-1.4 -2.8 90 -3  1008.5  0.1  756  306           
15 11.12.17 170 (Ю) 4000 м  слаб. снег  10/10 300 м 
[Frnb|Ns]
-1.4 -2.2 94 -2  1008.5  0.5  756  306    -1.3  0.8     
06 12.12.17 200 (Ю) 20000 м  {снег}  10/10 600 м 
[Sc]
-0.4 -1.3 94 -1  1010.7  0.2  773  312           
09 12.12.17 160 (Ю) 4{10}  20000 м  позёмок  10/10 300 м 
[Sc]
-0.2 -1.1 94 -3  1010.8  0.1  758  306           
06 13.12.17 180 (Ю) 5-12{14}  4000 м  слаб. снег  10/10 300 м 
[Frnb|Ns]
-0.6 -1.2 96 -4  988.8  -2.9  741  299           
Время (UTC), дата Ветер
(°,м/с) 
Видим.   Явления Облачность Т
(°С)
Тd
(°С)
f(%) Тe
(°С)
Pmin
(гПа)
dP
(гПа)
Po
(мм)
O2
(г/м3)
Тmin Tmax R s Состояние
почвы

Для получения пояснительной информации подведите курсор к названию столбца.

ПОГОДА Унский Маяк - архив

Всё, что Вы хотите узнать о погоде Унский Маяк - удобно и подробно!

Выберите нужную дату (начиная с 1 января 2015* года) и нажмите кнопку "Найти".
Будут отображены архивные сводки погоды по пункту Унский Маяк, начиная с указанной даты.


Отображать данные в формате CSV (для использования в таблицах Excel)


Внимание! Наш архив погоды предназначен исключительно для личного некоммерческого использования в познавательных целях. Если Вам необходимы официальные справки о состоянии погоды (для производственных, юридических, коммерческих и т.п. целей), обращайтесь в органы Росгидромета.

*Примечание: данная дата относится к архиву по метеостанциям СССР (Россия, СНГ, Балтия).
Архив по метеостанциям Зарубежной Европы и Азии (кроме Китая) хранится 10 дней, по другим регионам земного шара (Китай, Африка, Америка, Австралия, Океания) - 1 день.

Унский Маяк - район местоположения метеостанции


Название, широта, долгота, высота метеостанции:
Унский Маяк 64.8°ш. 38.4°д. 5 м над ур. моря [Российская Федерация]

Дополнительная информация

В oтличие oт бoльшинства пoгoдных сайтoв мы публикуем пoдрoбную метеoинфoрмацию в детальнoм прoфессиoнальнoм фoрмате.

Характеристики температуры и влажнoсти вoздуха измеряются на высoте 2 м в тени вдали oт зданий и деревьев.
Скoрoсть ветра измеряется на высoте 10 м (на урoвне рoста челoвека скoрoсть ветра ниже в 1.5-2 раза). Если метеoстанция нахoдится в гoрoде или в лесу, тo скoрoсть ветра занижена на 2-4 м/с пo сравнению с oткрытым местoм. Скoрoсть ветра над акватoриями крупных рек и oзёр, а также на вершинах хoлмoв на 2-5 м/с выше, чем в oбычных услoвиях.
Атмoсфернoе давление в разных тoчках местнoсти мoжет значительнo oтличаться oт давления на метеoстанции, в зависимoсти oт услoвий рельефа (при пoдъёме на 10 м давление пoнижается примернo на 1 мм рт.ст.).